Time,TemperatureF,DewpointF,PressureIn,WindDirection,WindDirectionDegrees,WindSpeedMPH,WindSpeedGustMPH,Humidity,HourlyPrecipIn,Conditions,Clouds,dailyrainin,SoftwareType,DateUTC
2013-06-05 00:03:00,60.7,54.2,30.00,ESE,105,0.0,0.0,79,0.00,,---,0.00,VWS V14.00,2013-06-05 05:03:00,
2013-06-05 00:09:00,60.7,54.5,30.00,ESE,105,0.0,0.0,80,0.00,,---,0.00,VWS V14.00,2013-06-05 05:09:00,
2013-06-05 00:14:00,60.5,54.7,30.00,ESE,105,0.0,0.0,81,0.00,,---,0.00,VWS V14.00,2013-06-05 05:14:00,
2013-06-05 00:19:00,60.2,54.4,30.00,ESE,105,0.0,0.0,81,0.00,,---,0.00,VWS V14.00,2013-06-05 05:19:00,
2013-06-05 00:24:00,60.1,54.6,30.00,ESE,105,0.0,0.0,82,0.00,,---,0.00,VWS V14.00,2013-06-05 05:24:00,
2013-06-05 00:29:00,59.9,54.4,30.00,ESE,105,0.0,0.0,82,0.00,,---,0.00,VWS V14.00,2013-06-05 05:29:00,
2013-06-05 00:34:00,59.8,54.3,29.99,ESE,105,0.0,0.0,82,0.00,,---,0.00,VWS V14.00,2013-06-05 05:34:00,
2013-06-05 00:39:00,59.6,54.4,29.99,ESE,105,0.0,0.0,83,0.00,,---,0.00,VWS V14.00,2013-06-05 05:39:00,
2013-06-05 00:44:00,59.3,54.2,29.99,ESE,105,0.0,0.0,83,0.00,,---,0.00,VWS V14.00,2013-06-05 05:44:00,
2013-06-05 00:49:00,59.2,54.0,29.99,ESE,105,0.0,0.0,83,0.00,,---,0.00,VWS V14.00,2013-06-05 05:49:00,
2013-06-05 00:54:00,59.2,54.4,29.99,ESE,105,0.0,0.0,84,0.00,,---,0.00,VWS V14.00,2013-06-05 05:54:00,
2013-06-05 00:59:00,59.0,54.2,29.99,ESE,105,0.0,0.0,84,0.00,,---,0.00,VWS V14.00,2013-06-05 05:59:00,
2013-06-05 01:04:00,59.0,54.2,29.99,ESE,105,0.0,0.0,84,0.00,,---,0.00,VWS V14.00,2013-06-05 06:04:00,
2013-06-05 01:09:00,59.0,54.2,29.99,ESE,105,0.0,0.0,84,0.00,,---,0.00,VWS V14.00,2013-06-05 06:09:00,
2013-06-05 01:14:00,59.0,53.8,29.99,ESE,105,0.0,0.0,83,0.00,,---,0.00,VWS V14.00,2013-06-05 06:14:00,
2013-06-05 01:19:00,58.9,53.8,29.99,ESE,105,0.0,0.0,83,0.00,,---,0.00,VWS V14.00,2013-06-05 06:19:00,
2013-06-05 01:25:00,58.9,53.8,29.99,ESE,105,0.0,0.0,83,0.00,,---,0.00,VWS V14.00,2013-06-05 06:25:00,
2013-06-05 01:30:00,58.7,53.6,29.99,ESE,105,0.0,0.0,83,0.00,,---,0.00,VWS V14.00,2013-06-05 06:30:00,
2013-06-05 01:35:00,58.7,53.6,29.99,ESE,105,0.0,0.0,83,0.00,,---,0.00,VWS V14.00,2013-06-05 06:35:00,
2013-06-05 01:40:00,58.4,53.3,29.99,ESE,105,0.0,0.0,83,0.00,,---,0.00,VWS V14.00,2013-06-05 06:40:00,
2013-06-05 01:45:00,58.3,53.2,29.99,ESE,105,0.0,0.0,83,0.00,,---,0.00,VWS V14.00,2013-06-05 06:45:00,
2013-06-05 01:50:00,58.0,53.2,29.98,ESE,105,0.0,0.0,84,0.00,,---,0.00,VWS V14.00,2013-06-05 06:50:00,
2013-06-05 01:55:00,58.0,53.5,29.98,ESE,105,0.0,0.0,85,0.00,,---,0.00,VWS V14.00,2013-06-05 06:55:00,
2013-06-05 02:00:00,57.8,53.3,29.98,ESE,105,0.0,0.0,85,0.00,,---,0.00,VWS V14.00,2013-06-05 07:00:00,
2013-06-05 02:05:00,57.8,53.3,29.99,ESE,105,0.0,0.0,85,0.00,,---,0.00,VWS V14.00,2013-06-05 07:05:00,
2013-06-05 02:10:00,57.8,53.3,29.99,ESE,105,0.0,0.0,85,0.00,,---,0.00,VWS V14.00,2013-06-05 07:10:00,
2013-06-05 02:15:00,57.8,53.3,29.99,ESE,105,0.0,0.0,85,0.00,,---,0.00,VWS V14.00,2013-06-05 07:15:00,
2013-06-05 02:20:00,57.8,53.3,29.99,ESE,105,0.0,0.0,85,0.00,,---,0.00,VWS V14.00,2013-06-05 07:20:00,
2013-06-05 02:25:00,58.0,53.5,29.99,ESE,105,0.0,0.0,85,0.00,,---,0.00,VWS V14.00,2013-06-05 07:25:00,
2013-06-05 02:30:00,58.0,53.5,29.99,ESE,105,0.0,0.0,85,0.00,,---,0.00,VWS V14.00,2013-06-05 07:30:00,
2013-06-05 02:36:00,58.0,53.2,29.99,ESE,105,2.0,2.0,84,0.00,,---,0.00,VWS V14.00,2013-06-05 07:36:00,
2013-06-05 02:41:00,58.1,53.3,29.99,ESE,105,0.0,2.0,84,0.00,,---,0.00,VWS V14.00,2013-06-05 07:41:00,
2013-06-05 02:46:00,58.1,53.3,29.98,ESE,105,0.0,0.0,84,0.00,,---,0.00,VWS V14.00,2013-06-05 07:46:00,
2013-06-05 02:51:00,58.1,53.3,29.98,ESE,105,0.0,0.0,84,0.00,,---,0.00,VWS V14.00,2013-06-05 07:51:00,
2013-06-05 02:56:00,58.1,53.3,29.98,ESE,105,0.0,0.0,84,0.00,,---,0.00,VWS V14.00,2013-06-05 07:56:00,
2013-06-05 03:01:00,58.0,53.2,29.98,ESE,105,0.0,0.0,84,0.00,,---,0.00,VWS V14.00,2013-06-05 08:01:00,
2013-06-05 03:06:00,58.0,53.2,29.98,ESE,105,0.0,0.0,84,0.00,,---,0.00,VWS V14.00,2013-06-05 08:06:00,
2013-06-05 03:11:00,58.0,53.2,29.98,ESE,105,0.0,0.0,84,0.00,,---,0.00,VWS V14.00,2013-06-05 08:11:00,
2013-06-05 03:16:00,58.1,53.0,29.98,ESE,105,2.0,3.0,83,0.00,,---,0.00,VWS V14.00,2013-06-05 08:16:00,
2013-06-05 03:21:00,58.3,53.2,29.98,ESE,105,0.0,0.0,83,0.00,,---,0.00,VWS V14.00,2013-06-05 08:21:00,
2013-06-05 03:26:00,58.4,53.3,29.98,ESE,105,0.0,0.0,83,0.00,,---,0.00,VWS V14.00,2013-06-05 08:26:00,
2013-06-05 03:31:00,58.4,52.9,29.98,ESE,105,0.0,0.0,82,0.00,,---,0.00,VWS V14.00,2013-06-05 08:31:00,
2013-06-05 03:36:00,58.4,52.9,29.98,ESE,105,0.0,0.0,82,0.00,,---,0.00,VWS V14.00,2013-06-05 08:36:00,
2013-06-05 03:42:00,58.3,52.8,29.98,ESE,105,3.0,3.0,82,0.00,,---,0.00,VWS V14.00,2013-06-05 08:42:00,
2013-06-05 03:47:00,58.4,52.6,29.99,ESE,105,0.0,2.0,81,0.00,,---,0.00,VWS V14.00,2013-06-05 08:47:00,
2013-06-05 03:52:00,58.6,52.8,29.99,ESE,105,0.0,0.0,81,0.00,,---,0.00,VWS V14.00,2013-06-05 08:52:00,
2013-06-05 03:57:00,58.6,52.8,29.99,ESE,105,0.0,0.0,81,0.00,,---,0.00,VWS V14.00,2013-06-05 08:57:00,
2013-06-05 04:02:00,58.6,52.8,29.98,ESE,105,0.0,0.0,81,0.00,,---,0.00,VWS V14.00,2013-06-05 09:02:00,
2013-06-05 04:07:00,58.4,52.6,29.98,ESE,105,0.0,0.0,81,0.00,,---,0.00,VWS V14.00,2013-06-05 09:07:00,
2013-06-05 04:12:00,58.3,52.8,29.98,ESE,105,2.0,3.0,82,0.00,,---,0.00,VWS V14.00,2013-06-05 09:12:00,
2013-06-05 04:17:00,58.1,53.0,29.98,ESE,105,2.0,4.0,83,0.00,,---,0.00,VWS V14.00,2013-06-05 09:17:00,
2013-06-05 04:22:00,58.0,52.9,29.98,ESE,105,3.0,3.0,83,0.00,,---,0.00,VWS V14.00,2013-06-05 09:22:00,
2013-06-05 04:27:00,57.8,52.7,29.98,ESE,105,0.0,0.0,83,0.00,,---,0.00,VWS V14.00,2013-06-05 09:27:00,
2013-06-05 04:32:00,57.6,52.8,29.97,ESE,105,1.0,1.0,84,0.00,,---,0.00,VWS V14.00,2013-06-05 09:32:00,
2013-06-05 04:37:00,57.5,52.7,29.97,ESE,105,0.0,0.0,84,0.00,,---,0.00,VWS V14.00,2013-06-05 09:37:00,
2013-06-05 04:42:00,57.2,52.7,29.97,ESE,105,1.0,1.0,85,0.00,,---,0.00,VWS V14.00,2013-06-05 09:42:00,
2013-06-05 04:47:00,57.0,52.5,29.99,ESE,105,2.0,2.0,85,0.00,,---,0.00,VWS V14.00,2013-06-05 09:47:00,
2013-06-05 04:52:00,57.0,52.9,29.99,ESE,105,2.0,2.0,86,0.00,,---,0.00,VWS V14.00,2013-06-05 09:52:00,
2013-06-05 04:57:00,56.9,52.8,29.99,ESE,105,1.0,2.0,86,0.00,,---,0.00,VWS V14.00,2013-06-05 09:57:00,
2013-06-05 05:02:00,56.7,52.6,29.98,ESE,105,0.0,1.0,86,0.00,,---,0.00,VWS V14.00,2013-06-05 10:02:00,
2013-06-05 05:07:00,56.6,52.8,29.98,ESE,105,2.0,3.0,87,0.00,,---,0.00,VWS V14.00,2013-06-05 10:07:00,
2013-06-05 05:12:00,56.6,52.8,29.98,ESE,105,1.0,2.0,87,0.00,,---,0.00,VWS V14.00,2013-06-05 10:12:00,
2013-06-05 05:18:00,56.6,52.8,29.99,ESE,105,0.0,1.0,87,0.00,,---,0.00,VWS V14.00,2013-06-05 10:18:00,
2013-06-05 05:23:00,56.6,52.8,29.99,ESE,105,0.0,0.0,87,0.00,,---,0.00,VWS V14.00,2013-06-05 10:23:00,
2013-06-05 05:28:00,56.6,52.8,29.99,ESE,105,0.0,0.0,87,0.00,,---,0.00,VWS V14.00,2013-06-05 10:28:00,
2013-06-05 05:33:00,56.6,52.8,29.99,ESE,105,0.0,0.0,87,0.00,,---,0.00,VWS V14.00,2013-06-05 10:33:00,
2013-06-05 05:38:00,56.7,52.9,29.99,ESE,105,0.0,0.0,87,0.00,,---,0.00,VWS V14.00,2013-06-05 10:38:00,
2013-06-05 05:43:00,56.7,52.9,29.99,ESE,105,0.0,0.0,87,0.00,,---,0.00,VWS V14.00,2013-06-05 10:43:00,
2013-06-05 05:48:00,56.7,52.9,29.99,ESE,105,0.0,0.0,87,0.00,,---,0.00,VWS V14.00,2013-06-05 10:48:00,
2013-06-05 05:53:00,56.7,52.9,29.99,ESE,105,0.0,0.0,87,0.00,,---,0.00,VWS V14.00,2013-06-05 10:53:00,
2013-06-05 05:58:00,56.7,52.9,29.99,ESE,105,0.0,0.0,87,0.00,,---,0.00,VWS V14.00,2013-06-05 10:58:00,
2013-06-05 06:03:00,56.7,52.9,29.99,ESE,105,0.0,0.0,87,0.00,,---,0.00,VWS V14.00,2013-06-05 11:03:00,
2013-06-05 06:08:00,56.6,53.1,29.99,ESE,105,0.0,0.0,88,0.00,,---,0.00,VWS V14.00,2013-06-05 11:08:00,
2013-06-05 06:13:00,56.6,53.1,29.99,ESE,105,0.0,0.0,88,0.00,,---,0.00,VWS V14.00,2013-06-05 11:13:00,
2013-06-05 06:18:00,56.6,53.1,29.98,ESE,105,0.0,0.0,88,0.00,,---,0.00,VWS V14.00,2013-06-05 11:18:00,
2013-06-05 06:23:00,56.6,53.1,29.98,ESE,105,0.0,0.0,88,0.00,,---,0.00,VWS V14.00,2013-06-05 11:23:00,
2013-06-05 06:28:00,56.7,53.5,29.98,ESE,105,0.0,0.0,89,0.00,,---,0.00,VWS V14.00,2013-06-05 11:28:00,
2013-06-05 06:34:00,56.7,53.5,29.98,ESE,105,0.0,0.0,89,0.00,,---,0.00,VWS V14.00,2013-06-05 11:34:00,
2013-06-05 06:39:00,56.9,53.7,29.98,ESE,105,0.0,0.0,89,0.00,,---,0.00,VWS V14.00,2013-06-05 11:39:00,
2013-06-05 06:44:00,56.9,53.7,29.98,ESE,105,0.0,0.0,89,0.00,,---,0.00,VWS V14.00,2013-06-05 11:44:00,
2013-06-05 06:49:00,57.0,53.8,29.98,ESE,105,0.0,0.0,89,0.00,,---,0.00,VWS V14.00,2013-06-05 11:49:00,
2013-06-05 06:54:00,57.2,54.0,29.98,ESE,105,0.0,0.0,89,0.00,,---,0.00,VWS V14.00,2013-06-05 11:54:00,
2013-06-05 06:59:00,57.6,54.7,29.98,ESE,105,0.0,0.0,90,0.00,,---,0.00,VWS V14.00,2013-06-05 11:59:00,
2013-06-05 07:04:00,58.1,55.2,29.98,ESE,105,0.0,0.0,90,0.00,,---,0.00,VWS V14.00,2013-06-05 12:04:00,
2013-06-05 07:09:00,58.4,55.5,29.98,ESE,105,0.0,0.0,90,0.00,,---,0.00,VWS V14.00,2013-06-05 12:09:00,
2013-06-05 07:14:00,58.9,55.7,29.98,ESE,105,0.0,0.0,89,0.00,,---,0.00,VWS V14.00,2013-06-05 12:14:00,
2013-06-05 07:19:00,59.2,56.0,29.97,ESE,105,0.0,0.0,89,0.00,,---,0.00,VWS V14.00,2013-06-05 12:19:00,
2013-06-05 07:24:00,59.3,56.1,29.97,ESE,105,0.0,0.0,89,0.00,,---,0.00,VWS V14.00,2013-06-05 12:24:00,
2013-06-05 07:29:00,59.6,56.0,29.97,ESE,105,0.0,0.0,88,0.00,,---,0.00,VWS V14.00,2013-06-05 12:29:00,
2013-06-05 07:34:00,59.8,55.9,29.96,ESE,105,0.0,0.0,87,0.00,,---,0.00,VWS V14.00,2013-06-05 12:34:00,
2013-06-05 07:39:00,60.1,56.2,29.96,ESE,105,0.0,0.0,87,0.00,,---,0.00,VWS V14.00,2013-06-05 12:39:00,
2013-06-05 07:45:00,60.4,56.2,29.96,ESE,105,0.0,0.0,86,0.00,,---,0.00,VWS V14.00,2013-06-05 12:45:00,
2013-06-05 07:50:00,60.9,55.7,29.95,ESE,105,4.0,4.0,83,0.00,,---,0.00,VWS V14.00,2013-06-05 12:50:00,
2013-06-05 07:55:00,61.3,55.8,29.95,ESE,105,2.0,2.0,82,0.00,,---,0.00,VWS V14.00,2013-06-05 12:55:00,
2013-06-05 08:00:00,62.0,56.1,29.95,ESE,105,0.0,0.0,81,0.00,,---,0.00,VWS V14.00,2013-06-05 13:00:00,
2013-06-05 08:05:00,62.3,56.1,29.95,ESE,105,0.0,0.0,80,0.00,,---,0.00,VWS V14.00,2013-06-05 13:05:00,
2013-06-05 08:10:00,62.6,56.0,29.95,ESE,105,0.0,0.0,79,0.00,,---,0.00,VWS V14.00,2013-06-05 13:10:00,
2013-06-05 08:15:00,62.9,55.9,29.95,ESE,105,4.0,6.0,78,0.00,,---,0.00,VWS V14.00,2013-06-05 13:15:00,
2013-06-05 08:20:00,63.5,55.8,29.94,ESE,106,5.0,5.0,76,0.00,,---,0.00,VWS V14.00,2013-06-05 13:20:00,
2013-06-05 08:25:00,64.2,55.8,29.94,ESE,106,4.0,10.0,74,0.00,,---,0.00,VWS V14.00,2013-06-05 13:25:00,
2013-06-05 08:30:00,64.8,56.0,29.94,ESE,104,6.0,10.0,73,0.00,,---,0.00,VWS V14.00,2013-06-05 13:30:00,
2013-06-05 08:35:00,65.3,55.7,29.94,ESE,105,0.0,10.0,71,0.00,,---,0.00,VWS V14.00,2013-06-05 13:35:00,
2013-06-05 08:40:00,65.6,55.2,29.94,ESE,105,0.0,9.0,69,0.00,,---,0.00,VWS V14.00,2013-06-05 13:40:00,
2013-06-05 08:45:00,66.3,54.6,29.94,ESE,105,1.0,9.0,66,0.00,,---,0.00,VWS V14.00,2013-06-05 13:45:00,
2013-06-05 08:50:00,66.8,55.5,29.94,ESE,107,4.0,6.0,67,0.00,,---,0.00,VWS V14.00,2013-06-05 13:50:00,
2013-06-05 08:55:00,67.1,55.0,29.94,ESE,106,6.0,9.0,65,0.00,,---,0.00,VWS V14.00,2013-06-05 13:55:00,
2013-06-05 09:00:00,67.6,55.0,29.94,ESE,107,6.0,7.0,64,0.00,,---,0.00,VWS V14.00,2013-06-05 14:00:00,
2013-06-05 09:06:00,67.8,55.2,29.94,ESE,107,0.0,7.0,64,0.00,,---,0.00,VWS V14.00,2013-06-05 14:06:00,
2013-06-05 09:11:00,68.3,54.8,29.94,ESE,111,7.0,10.0,62,0.00,,---,0.00,VWS V14.00,2013-06-05 14:11:00,
2013-06-05 09:16:00,68.9,55.4,29.94,ESE,116,6.0,8.0,62,0.00,,---,0.00,VWS V14.00,2013-06-05 14:16:00,
2013-06-05 09:21:00,69.1,54.7,29.94,ESE,114,5.0,7.0,60,0.00,,---,0.00,VWS V14.00,2013-06-05 14:21:00,
2013-06-05 09:26:00,69.3,54.8,29.94,ESE,113,6.0,8.0,60,0.00,,---,0.00,VWS V14.00,2013-06-05 14:26:00,
2013-06-05 09:31:00,69.6,54.7,29.94,ESE,113,6.0,8.0,59,0.00,,---,0.00,VWS V14.00,2013-06-05 14:31:00,
2013-06-05 09:37:00,70.1,55.6,29.94,ESE,116,9.0,9.0,60,0.00,,---,0.00,VWS V14.00,2013-06-05 14:37:00,
2013-06-05 09:42:00,70.4,55.4,29.94,ESE,114,4.0,7.0,59,0.00,,---,0.00,VWS V14.00,2013-06-05 14:42:00,
2013-06-05 09:47:00,70.6,56.1,29.93,ESE,113,5.0,9.0,60,0.00,,---,0.00,VWS V14.00,2013-06-05 14:47:00,
2013-06-05 09:52:00,70.6,55.1,29.93,ESE,113,4.0,4.0,58,0.00,,---,0.00,VWS V14.00,2013-06-05 14:52:00,
2013-06-05 09:57:00,71.1,56.1,29.93,ESE,113,3.0,5.0,59,0.00,,---,0.00,VWS V14.00,2013-06-05 14:57:00,
2013-06-05 10:02:00,71.5,56.4,29.94,ESE,113,6.0,7.0,59,0.00,,---,0.00,VWS V14.00,2013-06-05 15:02:00,
2013-06-05 10:07:00,71.8,56.7,29.94,ESE,113,5.0,7.0,59,0.00,,---,0.00,VWS V14.00,2013-06-05 15:07:00,
2013-06-05 10:12:00,71.8,56.2,29.94,ESE,113,5.0,6.0,58,0.00,,---,0.00,VWS V14.00,2013-06-05 15:12:00,
2013-06-05 10:17:00,72.0,56.9,29.93,ESE,113,5.0,6.0,59,0.00,,---,0.00,VWS V14.00,2013-06-05 15:17:00,
2013-06-05 10:22:00,71.8,55.8,29.93,ESE,113,4.0,4.0,57,0.00,,---,0.00,VWS V14.00,2013-06-05 15:22:00,
2013-06-05 10:27:00,72.1,56.0,29.93,ESE,113,4.0,5.0,57,0.00,,---,0.00,VWS V14.00,2013-06-05 15:27:00,
2013-06-05 10:32:00,72.7,57.1,29.94,ESE,113,5.0,5.0,58,0.00,,---,0.00,VWS V14.00,2013-06-05 15:32:00,
2013-06-05 10:37:00,72.8,56.7,29.94,ESE,119,6.0,6.0,57,0.00,,---,0.00,VWS V14.00,2013-06-05 15:37:00,
2013-06-05 10:42:00,73.0,56.9,29.94,ESE,119,2.0,4.0,57,0.00,,---,0.00,VWS V14.00,2013-06-05 15:42:00,
2013-06-05 10:47:00,73.5,56.9,29.94,ESE,123,2.0,5.0,56,0.00,,---,0.00,VWS V14.00,2013-06-05 15:47:00,
2013-06-05 10:53:00,73.7,57.5,29.94,SE,129,2.0,3.0,57,0.00,,---,0.00,VWS V14.00,2013-06-05 15:53:00,
2013-06-05 10:58:00,73.7,56.5,29.94,SE,130,4.0,6.0,55,0.00,,---,0.00,VWS V14.00,2013-06-05 15:58:00,
2013-06-05 11:03:00,73.7,56.0,29.93,SE,132,2.0,5.0,54,0.00,,---,0.00,VWS V14.00,2013-06-05 16:03:00,
2013-06-05 11:08:00,73.9,56.7,29.93,SE,132,2.0,5.0,55,0.00,,---,0.00,VWS V14.00,2013-06-05 16:08:00,
2013-06-05 11:13:00,74.2,57.5,29.93,SE,132,1.0,4.0,56,0.00,,---,0.00,VWS V14.00,2013-06-05 16:13:00,
2013-06-05 11:18:00,73.9,56.2,29.94,SE,126,3.0,3.0,54,0.00,,---,0.00,VWS V14.00,2013-06-05 16:18:00,
2013-06-05 11:23:00,73.7,57.0,29.94,SE,137,1.0,4.0,56,0.00,,---,0.00,VWS V14.00,2013-06-05 16:23:00,
2013-06-05 11:28:00,73.7,56.5,29.94,SE,137,2.0,5.0,55,0.00,,---,0.00,VWS V14.00,2013-06-05 16:28:00,
2013-06-05 11:33:00,73.7,57.5,29.95,SE,137,3.0,6.0,57,0.00,,---,0.00,VWS V14.00,2013-06-05 16:33:00,
2013-06-05 11:38:00,74.0,56.3,29.95,SE,137,5.0,6.0,54,0.00,,---,0.00,VWS V14.00,2013-06-05 16:38:00,
2013-06-05 11:43:00,73.9,55.7,29.95,SE,137,2.0,3.0,53,0.00,,---,0.00,VWS V14.00,2013-06-05 16:43:00,
2013-06-05 11:48:00,73.9,55.2,29.94,SE,137,0.0,2.0,52,0.00,,---,0.00,VWS V14.00,2013-06-05 16:48:00,
2013-06-05 11:54:00,74.4,57.7,29.94,SE,137,3.0,3.0,56,0.00,,---,0.00,VWS V14.00,2013-06-05 16:54:00,
2013-06-05 11:59:00,74.4,56.2,29.94,SE,137,0.0,0.0,53,0.00,,---,0.00,VWS V14.00,2013-06-05 16:59:00,
2013-06-05 12:04:00,74.6,56.4,29.94,SE,137,3.0,6.0,53,0.00,,---,0.00,VWS V14.00,2013-06-05 17:04:00,
2013-06-05 12:09:00,74.7,57.0,29.94,SE,137,0.0,1.0,54,0.00,,---,0.00,VWS V14.00,2013-06-05 17:09:00,
2013-06-05 12:14:00,74.7,56.5,29.94,SE,137,6.0,6.0,53,0.00,,---,0.00,VWS V14.00,2013-06-05 17:14:00,
2013-06-05 12:19:00,75.3,58.0,29.93,SE,139,5.0,10.0,55,0.00,,---,0.00,VWS V14.00,2013-06-05 17:19:00,
2013-06-05 12:24:00,75.3,55.9,29.93,SE,139,0.0,0.0,51,0.00,,---,0.00,VWS V14.00,2013-06-05 17:24:00,
2013-06-05 12:29:00,75.3,57.0,29.93,SE,139,3.0,4.0,53,0.00,,---,0.00,VWS V14.00,2013-06-05 17:29:00,
2013-06-05 12:34:00,75.4,57.1,29.93,SE,144,14.0,14.0,53,0.00,,---,0.00,VWS V14.00,2013-06-05 17:34:00,
2013-06-05 12:39:00,75.3,55.9,29.93,SSE,157,0.0,4.0,51,0.00,,---,0.00,VWS V14.00,2013-06-05 17:39:00,
2013-06-05 12:44:00,75.3,55.9,29.93,SE,138,5.0,7.0,51,0.00,,---,0.00,VWS V14.00,2013-06-05 17:44:00,
2013-06-05 12:49:00,75.6,56.2,29.92,SE,138,0.0,5.0,51,0.00,,---,0.00,VWS V14.00,2013-06-05 17:49:00,
2013-06-05 12:54:00,76.1,57.8,29.92,SE,137,0.0,0.0,53,0.00,,---,0.00,VWS V14.00,2013-06-05 17:54:00,
2013-06-05 12:59:00,75.8,56.9,29.92,SE,142,4.0,4.0,52,0.00,,---,0.00,VWS V14.00,2013-06-05 17:59:00,
2013-06-05 13:04:00,76.1,55.0,29.92,SSE,153,6.0,7.0,48,0.00,,---,0.00,VWS V14.00,2013-06-05 18:04:00,
2013-06-05 13:10:00,76.3,54.0,29.92,SSE,154,8.0,8.0,46,0.00,,---,0.00,VWS V14.00,2013-06-05 18:10:00,
2013-06-05 13:15:00,76.0,55.5,29.92,SSE,154,4.0,7.0,49,0.00,,---,0.00,VWS V14.00,2013-06-05 18:15:00,
2013-06-05 13:20:00,75.8,54.7,29.91,SSE,154,4.0,6.0,48,0.00,,---,0.00,VWS V14.00,2013-06-05 18:20:00,
2013-06-05 13:25:00,76.5,57.6,29.91,SE,127,11.0,13.0,52,0.00,,---,0.00,VWS V14.00,2013-06-05 18:25:00,
2013-06-05 13:30:00,75.8,56.4,29.91,SE,125,0.0,0.0,51,0.00,,---,0.00,VWS V14.00,2013-06-05 18:30:00,
2013-06-05 13:35:00,75.6,55.1,29.90,ESE,110,2.0,9.0,49,0.00,,---,0.00,VWS V14.00,2013-06-05 18:35:00,
2013-06-05 13:40:00,75.6,55.1,29.90,ESE,110,6.0,7.0,49,0.00,,---,0.00,VWS V14.00,2013-06-05 18:40:00,
2013-06-05 13:45:00,76.0,54.9,29.90,ESE,116,4.0,9.0,48,0.00,,---,0.00,VWS V14.00,2013-06-05 18:45:00,
2013-06-05 13:50:00,75.8,54.2,29.90,ESE,119,3.0,7.0,47,0.00,,---,0.00,VWS V14.00,2013-06-05 18:50:00,
2013-06-05 13:55:00,76.0,55.5,29.90,ESE,123,7.0,7.0,49,0.00,,---,0.00,VWS V14.00,2013-06-05 18:55:00,
2013-06-05 14:00:00,76.1,55.6,29.90,ESE,123,7.0,10.0,49,0.00,,---,0.00,VWS V14.00,2013-06-05 19:00:00,
2013-06-05 14:05:00,76.1,53.2,29.89,ESE,122,1.0,4.0,45,0.00,,---,0.00,VWS V14.00,2013-06-05 19:05:00,
2013-06-05 14:10:00,76.7,55.5,29.89,SE,133,6.0,9.0,48,0.00,,---,0.00,VWS V14.00,2013-06-05 19:10:00,
2013-06-05 14:15:00,77.4,55.6,29.89,SE,136,6.0,11.0,47,0.00,,---,0.00,VWS V14.00,2013-06-05 19:15:00,
2013-06-05 14:20:00,77.6,54.0,29.89,SE,139,3.0,4.0,44,0.00,,---,0.00,VWS V14.00,2013-06-05 19:20:00,
2013-06-05 14:25:00,76.8,54.5,29.89,SE,132,0.0,6.0,46,0.00,,---,0.00,VWS V14.00,2013-06-05 19:25:00,
2013-06-05 14:31:00,76.5,54.2,29.89,SE,132,7.0,7.0,46,0.00,,---,0.00,VWS V14.00,2013-06-05 19:31:00,
2013-06-05 14:36:00,76.3,55.2,29.89,SE,132,5.0,7.0,48,0.00,,---,0.00,VWS V14.00,2013-06-05 19:36:00,
2013-06-05 14:41:00,76.3,54.0,29.89,SE,132,1.0,3.0,46,0.00,,---,0.00,VWS V14.00,2013-06-05 19:41:00,
2013-06-05 14:46:00,76.7,54.4,29.88,SE,132,3.0,5.0,46,0.00,,---,0.00,VWS V14.00,2013-06-05 19:46:00,
2013-06-05 14:51:00,76.8,53.9,29.88,SE,136,3.0,6.0,45,0.00,,---,0.00,VWS V14.00,2013-06-05 19:51:00,
2013-06-05 14:56:00,77.0,54.7,29.88,SE,136,3.0,4.0,46,0.00,,---,0.00,VWS V14.00,2013-06-05 19:56:00,
2013-06-05 15:01:00,77.2,54.2,29.87,SE,135,3.0,7.0,45,0.00,,---,0.00,VWS V14.00,2013-06-05 20:01:00,
2013-06-05 15:06:00,77.2,54.2,29.87,SE,135,0.0,0.0,45,0.00,,---,0.00,VWS V14.00,2013-06-05 20:06:00,
2013-06-05 15:12:00,77.7,55.3,29.87,SE,135,0.0,0.0,46,0.00,,---,0.00,VWS V14.00,2013-06-05 20:12:00,
2013-06-05 15:17:00,78.3,55.8,29.86,SE,135,3.0,3.0,46,0.00,,---,0.00,VWS V14.00,2013-06-05 20:17:00,
2013-06-05 15:22:00,78.6,54.9,29.86,SE,139,3.0,4.0,44,0.00,,---,0.00,VWS V14.00,2013-06-05 20:22:00,
2013-06-05 15:27:00,78.8,58.0,29.86,SE,143,0.0,3.0,49,0.00,,---,0.00,VWS V14.00,2013-06-05 20:27:00,
2013-06-05 15:32:00,79.0,52.6,29.85,SE,142,3.0,3.0,40,0.00,,---,0.00,VWS V14.00,2013-06-05 20:32:00,
2013-06-05 15:37:00,79.2,53.5,29.85,SE,142,0.0,2.0,41,0.00,,---,0.00,VWS V14.00,2013-06-05 20:37:00,
2013-06-05 15:42:00,79.4,53.0,29.85,SE,142,1.0,1.0,40,0.00,,---,0.00,VWS V14.00,2013-06-05 20:42:00,
2013-06-05 15:47:00,79.4,52.3,29.85,SE,142,1.0,4.0,39,0.00,,---,0.00,VWS V14.00,2013-06-05 20:47:00,
2013-06-05 15:52:00,79.6,54.5,29.85,SE,135,5.0,7.0,42,0.00,,---,0.00,VWS V14.00,2013-06-05 20:52:00,
2013-06-05 15:57:00,79.8,53.4,29.85,SSE,157,0.0,5.0,40,0.00,,---,0.00,VWS V14.00,2013-06-05 20:57:00,
2013-06-05 16:02:00,80.1,52.9,29.85,SSE,157,4.0,6.0,39,0.00,,---,0.00,VWS V14.00,2013-06-05 21:02:00,
2013-06-05 16:07:00,79.6,52.5,29.85,SSE,157,2.0,3.0,39,0.00,,---,0.00,VWS V14.00,2013-06-05 21:07:00,
2013-06-05 16:12:00,79.6,53.8,29.85,SSE,159,4.0,5.0,41,0.00,,---,0.00,VWS V14.00,2013-06-05 21:12:00,
2013-06-05 16:17:00,79.6,52.5,29.85,SSE,161,1.0,1.0,39,0.00,,---,0.00,VWS V14.00,2013-06-05 21:17:00,
2013-06-05 16:22:00,79.4,52.3,29.85,SSE,161,0.0,0.0,39,0.00,,---,0.00,VWS V14.00,2013-06-05 21:22:00,
2013-06-05 16:27:00,79.6,52.5,29.85,SSE,161,0.0,0.0,39,0.00,,---,0.00,VWS V14.00,2013-06-05 21:27:00,
2013-06-05 16:32:00,80.1,56.2,29.84,SSE,161,0.0,0.0,44,0.00,,---,0.00,VWS V14.00,2013-06-05 21:32:00,
2013-06-05 16:37:00,79.6,51.8,29.84,SSE,161,2.0,3.0,38,0.00,,---,0.00,VWS V14.00,2013-06-05 21:37:00,
2013-06-05 16:43:00,79.8,56.6,29.84,SSE,161,0.0,0.0,45,0.00,,---,0.00,VWS V14.00,2013-06-05 21:43:00,
2013-06-05 16:48:00,80.3,57.7,29.84,SSE,161,0.0,0.0,46,0.00,,---,0.00,VWS V14.00,2013-06-05 21:48:00,
2013-06-05 16:53:00,80.1,56.2,29.84,SSE,161,0.0,0.0,44,0.00,,---,0.00,VWS V14.00,2013-06-05 21:53:00,
2013-06-05 16:58:00,79.9,55.4,29.84,SSE,161,1.0,1.0,43,0.00,,---,0.00,VWS V14.00,2013-06-05 21:58:00,
2013-06-05 17:03:00,79.4,55.6,29.83,SSE,161,0.0,0.0,44,0.00,,---,0.00,VWS V14.00,2013-06-05 22:03:00,
2013-06-05 17:08:00,78.5,56.0,29.83,SSE,161,1.0,5.0,46,0.00,,---,0.00,VWS V14.00,2013-06-05 22:08:00,
2013-06-05 17:13:00,77.7,55.9,29.83,SSE,161,0.0,0.0,47,0.00,,---,0.00,VWS V14.00,2013-06-05 22:13:00,
2013-06-05 17:18:00,77.6,57.0,29.83,SSE,161,0.0,0.0,49,0.00,,---,0.00,VWS V14.00,2013-06-05 22:18:00,
2013-06-05 17:23:00,77.4,58.4,29.83,SSE,161,0.0,0.0,52,0.00,,---,0.00,VWS V14.00,2013-06-05 22:23:00,
2013-06-05 17:28:00,77.4,59.5,29.83,SSE,161,0.0,0.0,54,0.00,,---,0.00,VWS V14.00,2013-06-05 22:28:00,
2013-06-05 17:33:00,77.6,59.7,29.82,SSE,161,0.0,0.0,54,0.00,,---,0.00,VWS V14.00,2013-06-05 22:33:00,
2013-06-05 17:38:00,77.4,56.8,29.82,SSE,161,0.0,0.0,49,0.00,,---,0.00,VWS V14.00,2013-06-05 22:38:00,
2013-06-05 17:43:00,77.2,53.6,29.82,SSE,161,0.0,0.0,44,0.00,,---,0.00,VWS V14.00,2013-06-05 22:43:00,
2013-06-05 17:48:00,77.6,52.7,29.82,SSE,161,0.0,0.0,42,0.00,,---,0.00,VWS V14.00,2013-06-05 22:48:00,
2013-06-05 17:53:00,77.9,57.2,29.82,SSE,161,0.0,0.0,49,0.00,,---,0.00,VWS V14.00,2013-06-05 22:53:00,
2013-06-05 17:59:00,78.3,57.0,29.82,SSE,161,0.0,0.0,48,0.00,,---,0.00,VWS V14.00,2013-06-05 22:59:00,
2013-06-05 18:04:00,78.3,60.3,29.82,SSE,161,0.0,0.0,54,0.00,,---,0.00,VWS V14.00,2013-06-05 23:04:00,
2013-06-05 18:09:00,78.1,55.7,29.82,SSE,161,0.0,0.0,46,0.00,,---,0.00,VWS V14.00,2013-06-05 23:09:00,
2013-06-05 18:14:00,77.7,56.5,29.82,SSE,161,0.0,0.0,48,0.00,,---,0.00,VWS V14.00,2013-06-05 23:14:00,
2013-06-05 18:19:00,77.6,56.4,29.82,SSE,161,0.0,0.0,48,0.00,,---,0.00,VWS V14.00,2013-06-05 23:19:00,
2013-06-05 18:24:00,77.4,56.8,29.82,SSE,161,0.0,0.0,49,0.00,,---,0.00,VWS V14.00,2013-06-05 23:24:00,
2013-06-05 18:29:00,77.4,56.2,29.82,SSE,161,0.0,0.0,48,0.00,,---,0.00,VWS V14.00,2013-06-05 23:29:00,
2013-06-05 18:34:00,77.4,56.8,29.82,SSE,161,0.0,0.0,49,0.00,,---,0.00,VWS V14.00,2013-06-05 23:34:00,
2013-06-05 18:39:00,77.2,57.7,29.82,SSE,161,0.0,0.0,51,0.00,,---,0.00,VWS V14.00,2013-06-05 23:39:00,
2013-06-05 18:44:00,76.8,57.9,29.82,SSE,161,0.0,0.0,52,0.00,,---,0.00,VWS V14.00,2013-06-05 23:44:00,
2013-06-05 18:49:00,76.5,57.0,29.82,SSE,161,0.0,0.0,51,0.00,,---,0.00,VWS V14.00,2013-06-05 23:49:00,
2013-06-05 18:54:00,76.1,56.7,29.82,SSE,161,0.0,0.0,51,0.00,,---,0.00,VWS V14.00,2013-06-05 23:54:00,
2013-06-05 18:59:00,75.8,57.5,29.82,SSE,161,0.0,0.0,53,0.00,,---,0.00,VWS V14.00,2013-06-05 23:59:00,
2013-06-05 19:04:00,75.4,56.6,29.82,SSE,161,0.0,0.0,52,0.00,,---,0.00,VWS V14.00,2013-06-06 00:04:00,
2013-06-05 19:09:00,75.3,57.5,29.82,SSE,161,0.0,0.0,54,0.00,,---,0.00,VWS V14.00,2013-06-06 00:09:00,
2013-06-05 19:14:00,74.9,57.2,29.82,SSE,161,0.0,0.0,54,0.00,,---,0.00,VWS V14.00,2013-06-06 00:14:00,
2013-06-05 19:19:00,74.6,56.4,29.82,SSE,161,0.0,0.0,53,0.00,,---,0.00,VWS V14.00,2013-06-06 00:19:00,
2013-06-05 19:24:00,74.2,56.5,29.82,SSE,161,0.0,0.0,54,0.00,,---,0.00,VWS V14.00,2013-06-06 00:24:00,
2013-06-05 19:29:00,74.0,56.3,29.82,SSE,161,0.0,0.0,54,0.00,,---,0.00,VWS V14.00,2013-06-06 00:29:00,
2013-06-05 19:35:00,73.9,56.7,29.82,SSE,161,0.0,0.0,55,0.00,,---,0.00,VWS V14.00,2013-06-06 00:35:00,
2013-06-05 19:40:00,73.5,56.9,29.82,SSE,161,0.0,0.0,56,0.00,,---,0.00,VWS V14.00,2013-06-06 00:40:00,
2013-06-05 19:45:00,73.3,56.2,29.82,SSE,161,0.0,0.0,55,0.00,,---,0.00,VWS V14.00,2013-06-06 00:45:00,
2013-06-05 19:50:00,73.2,56.6,29.82,SSE,161,0.0,0.0,56,0.00,,---,0.00,VWS V14.00,2013-06-06 00:50:00,
2013-06-05 19:55:00,73.0,56.9,29.82,SSE,161,0.0,0.0,57,0.00,,---,0.00,VWS V14.00,2013-06-06 00:55:00,
2013-06-05 20:00:00,72.8,56.7,29.82,SSE,161,0.0,0.0,57,0.00,,---,0.00,VWS V14.00,2013-06-06 01:00:00,
2013-06-05 20:05:00,72.5,56.9,29.82,SSE,161,0.0,0.0,58,0.00,,---,0.00,VWS V14.00,2013-06-06 01:05:00,
2013-06-05 20:10:00,72.1,56.0,29.82,SSE,161,0.0,0.0,57,0.00,,---,0.00,VWS V14.00,2013-06-06 01:10:00,
2013-06-05 20:15:00,72.0,56.0,29.82,SSE,161,0.0,0.0,57,0.00,,---,0.00,VWS V14.00,2013-06-06 01:15:00,
2013-06-05 20:20:00,71.8,57.2,29.81,SSE,161,0.0,0.0,60,0.00,,---,0.00,VWS V14.00,2013-06-06 01:20:00,
2013-06-05 20:25:00,71.5,57.4,29.81,SSE,161,0.0,0.0,61,0.00,,---,0.00,VWS V14.00,2013-06-06 01:25:00,
2013-06-05 20:30:00,71.3,58.5,29.81,SSE,161,0.0,0.0,64,0.00,,---,0.00,VWS V14.00,2013-06-06 01:30:00,
2013-06-05 20:35:00,70.9,58.1,29.82,SSE,161,0.0,0.0,64,0.00,,---,0.00,VWS V14.00,2013-06-06 01:35:00,
2013-06-05 20:40:00,70.6,57.4,29.82,SSE,161,0.0,0.0,63,0.00,,---,0.00,VWS V14.00,2013-06-06 01:40:00,
2013-06-05 20:46:00,70.4,57.2,29.82,SSE,161,0.0,0.0,63,0.00,,---,0.00,VWS V14.00,2013-06-06 01:46:00,
2013-06-05 20:51:00,70.4,57.2,29.82,SSE,161,0.0,0.0,63,0.00,,---,0.00,VWS V14.00,2013-06-06 01:51:00,
2013-06-05 20:56:00,70.3,57.6,29.82,SSE,161,0.0,0.0,64,0.00,,---,0.00,VWS V14.00,2013-06-06 01:56:00,
2013-06-05 21:01:00,70.1,57.4,29.82,SSE,161,0.0,0.0,64,0.00,,---,0.00,VWS V14.00,2013-06-06 02:01:00,
2013-06-05 21:06:00,69.9,57.6,29.82,SSE,161,0.0,0.0,65,0.00,,---,0.00,VWS V14.00,2013-06-06 02:06:00,
2013-06-05 21:11:00,69.8,57.9,29.82,SSE,161,0.0,0.0,66,0.00,,---,0.00,VWS V14.00,2013-06-06 02:11:00,
2013-06-05 21:16:00,69.6,58.2,29.82,SSE,161,0.0,0.0,67,0.00,,---,0.00,VWS V14.00,2013-06-06 02:16:00,
2013-06-05 21:21:00,69.6,58.2,29.82,SSE,161,0.0,0.0,67,0.00,,---,0.00,VWS V14.00,2013-06-06 02:21:00,
2013-06-05 21:26:00,69.6,58.2,29.82,SSE,161,0.0,0.0,67,0.00,,---,0.00,VWS V14.00,2013-06-06 02:26:00,
2013-06-05 21:31:00,69.6,58.6,29.82,SSE,161,0.0,0.0,68,0.00,,---,0.00,VWS V14.00,2013-06-06 02:31:00,
2013-06-05 21:36:00,69.4,58.0,29.82,SSE,161,0.0,0.0,67,0.00,,---,0.00,VWS V14.00,2013-06-06 02:36:00,
2013-06-05 21:42:00,69.4,58.0,29.82,SSE,161,0.0,0.0,67,0.00,,---,0.00,VWS V14.00,2013-06-06 02:42:00,
2013-06-05 21:47:00,69.6,58.2,29.82,SSE,161,0.0,0.0,67,0.00,,---,0.00,VWS V14.00,2013-06-06 02:47:00,
2013-06-05 21:52:00,69.4,58.0,29.82,SSE,161,0.0,0.0,67,0.00,,---,0.00,VWS V14.00,2013-06-06 02:52:00,
2013-06-05 21:57:00,69.4,58.0,29.82,SSE,161,0.0,0.0,67,0.00,,---,0.00,VWS V14.00,2013-06-06 02:57:00,
2013-06-05 22:02:00,69.4,58.0,29.83,SSE,161,0.0,0.0,67,0.00,,---,0.00,VWS V14.00,2013-06-06 03:02:00,
2013-06-05 22:07:00,69.3,58.3,29.83,SSE,161,0.0,0.0,68,0.00,,---,0.00,VWS V14.00,2013-06-06 03:07:00,
2013-06-05 22:12:00,69.3,58.3,29.83,SSE,161,0.0,0.0,68,0.00,,---,0.00,VWS V14.00,2013-06-06 03:12:00,
2013-06-05 22:17:00,69.1,58.5,29.83,SSE,161,0.0,0.0,69,0.00,,---,0.00,VWS V14.00,2013-06-06 03:17:00,
2013-06-05 22:22:00,69.1,58.5,29.83,SSE,161,0.0,0.0,69,0.00,,---,0.00,VWS V14.00,2013-06-06 03:22:00,
2013-06-05 22:27:00,68.9,58.3,29.83,SSE,161,0.0,0.0,69,0.00,,---,0.00,VWS V14.00,2013-06-06 03:27:00,
2013-06-05 22:32:00,68.9,58.3,29.83,SSE,161,0.0,0.0,69,0.00,,---,0.00,VWS V14.00,2013-06-06 03:32:00,
2013-06-05 22:37:00,68.8,58.2,29.83,SSE,161,0.0,0.0,69,0.00,,---,0.00,VWS V14.00,2013-06-06 03:37:00,
2013-06-05 22:42:00,68.6,58.0,29.83,SSE,161,0.0,0.0,69,0.00,,---,0.00,VWS V14.00,2013-06-06 03:42:00,
2013-06-05 22:47:00,68.6,58.0,29.82,SSE,161,0.0,0.0,69,0.00,,---,0.00,VWS V14.00,2013-06-06 03:47:00,
2013-06-05 22:52:00,68.4,57.8,29.82,SSE,161,0.0,0.0,69,0.00,,---,0.00,VWS V14.00,2013-06-06 03:52:00,
2013-06-05 22:57:00,68.4,57.8,29.82,SSE,161,0.0,0.0,69,0.00,,---,0.00,VWS V14.00,2013-06-06 03:57:00,
2013-06-05 23:01:00,68.3,57.8,29.82,SSE,161,0.0,0.0,69,0.00,,---,0.00,VWS V14.00,2013-06-06 04:01:00,
2013-06-05 23:02:00,68.3,57.8,29.82,SSE,161,0.0,0.0,69,0.00,,---,0.00,VWS V14.00,2013-06-06 04:02:00,
2013-06-05 23:07:00,68.3,57.8,29.82,SSE,161,0.0,0.0,69,0.00,,---,0.00,VWS V14.00,2013-06-06 04:07:00,
2013-06-05 23:12:00,68.3,57.8,29.82,SSE,161,0.0,0.0,69,0.00,,---,0.00,VWS V14.00,2013-06-06 04:12:00,
2013-06-05 23:17:00,68.3,58.2,29.82,SSE,161,0.0,0.0,70,0.00,,---,0.00,VWS V14.00,2013-06-06 04:17:00,
2013-06-05 23:22:00,68.1,58.3,29.82,SSE,161,0.0,0.0,71,0.00,,---,0.00,VWS V14.00,2013-06-06 04:22:00,
2013-06-05 23:27:00,67.9,58.2,29.82,SSE,161,0.0,0.0,71,0.00,,---,0.00,VWS V14.00,2013-06-06 04:27:00,
2013-06-05 23:32:00,67.8,58.1,29.81,SSE,161,0.0,0.0,71,0.00,,---,0.00,VWS V14.00,2013-06-06 04:32:00,
2013-06-05 23:37:00,67.6,58.3,29.81,SSE,161,0.0,0.0,72,0.00,,---,0.00,VWS V14.00,2013-06-06 04:37:00,
2013-06-05 23:42:00,67.6,58.3,29.81,SSE,161,0.0,0.0,72,0.00,,---,0.00,VWS V14.00,2013-06-06 04:42:00,
2013-06-05 23:47:00,67.4,58.5,29.81,SSE,161,0.0,0.0,73,0.00,,---,0.00,VWS V14.00,2013-06-06 04:47:00,
2013-06-05 23:53:00,67.3,58.4,29.81,SSE,161,0.0,0.0,73,0.00,,---,0.00,VWS V14.00,2013-06-06 04:53:00,
2013-06-05 23:58:00,67.3,58.4,29.81,SSE,161,0.0,0.0,73,0.00,,---,0.00,VWS V14.00,2013-06-06 04:58:00,